| time (UTC) | temp C | wind direction | speed KPH | gust KPH | rain 1hr cm | rain 24hr cm | rain mn cm | humidity % | barometer mb |
| 20260507145403 | 12 | 350 | 8.0 | 14.5 | 0.00 | 0.00 | 0.00 | 31 | 1010.6 |
| 20260507144503 | 12 | 345 | 11.3 | 19.3 | 0.00 | 0.00 | 0.00 | 30 | 1010.7 |
| 20260507143603 | 11 | 343 | 9.7 | 16.1 | 0.00 | 0.00 | 0.00 | 32 | 1010.7 |
| 20260507142703 | 11 | 329 | 9.7 | 16.1 | 0.00 | 0.00 | 0.00 | 34 | 1010.8 |
| 20260507141804 | 10 | 326 | 9.7 | 14.5 | 0.00 | 0.00 | 0.00 | 36 | 1010.8 |
| 20260507140858 | 10 | 319 | 6.4 | 11.3 | 0.00 | 0.00 | 0.00 | 38 | 1010.6 |
| 20260507140019 | 10 | 323 | 8.0 | 14.5 | 0.00 | 0.00 | 0.00 | 35 | 1010.5 |
| 20260507135359 | 10 | 299 | 8.0 | 14.5 | 0.00 | 0.00 | 0.00 | 34 | 1010.5 |
| 20260507134519 | 9 | 260 | 1.6 | 6.4 | 0.00 | 0.00 | 0.00 | 47 | 1010.5 |
| 20260507133558 | 8 | 260 | 1.6 | 3.2 | 0.00 | 0.00 | 0.00 | 54 | 1010.4 |
| 20260507132719 | 7 | 260 | 1.6 | 3.2 | 0.00 | 0.00 | 0.00 | 54 | 1010.4 |
| 20260507131759 | 3 | 260 | 3.2 | 4.8 | 0.00 | 0.00 | 0.00 | 63 | 1010.3 |
| 20260507130858 | 2 | 260 | 3.2 | 4.8 | 0.00 | 0.00 | 0.00 | 69 | 1010.2 |
| 20260507125959 | 1 | 260 | 1.6 | 3.2 | 0.00 | 0.00 | 0.00 | 71 | 1010.1 |
| 20260507125359 | 0 | 260 | 0.0 | 1.6 | 0.00 | 0.00 | 0.00 | 73 | 1010.1 |
| 20260507124458 | 0 | 260 | 0.0 | 3.2 | 0.00 | 0.00 | 0.00 | 75 | 1010.0 |
| 20260507123558 | -1 | 260 | 1.6 | 3.2 | 0.00 | 0.00 | 0.00 | 74 | 1009.9 |
| 20260507122658 | -2 | 260 | 1.6 | 3.2 | 0.00 | 0.00 | 0.00 | 74 | 1009.8 |
| 20260507121759 | -2 | 272 | 1.6 | 4.8 | 0.00 | 0.00 | 0.00 | 74 | 1009.8 |
| 20260507120919 | -2 | 311 | 1.6 | 3.2 | 0.00 | 0.00 | 0.00 | 74 | 1009.8 |
| 20260507115958 | -2 | 359 | 1.6 | 4.8 | 0.00 | 0.00 | 0.00 | 73 | 1009.5 |
| 20260507115358 | -2 | 359 | 3.2 | 4.8 | 0.00 | 0.00 | 0.00 | 73 | 1009.6 |
| 20260507114458 | -2 | 357 | 1.6 | 4.8 | 0.00 | 0.00 | 0.00 | 73 | 1009.5 |
| 20260507113558 | -3 | 358 | 1.6 | 4.8 | 0.00 | 0.00 | 0.00 | 74 | 1009.4 |
| 20260507112719 | -3 | 360 | 4.8 | 6.4 | 0.00 | 0.00 | 0.00 | 74 | 1009.4 |
| 20260507111800 | -3 | 359 | 3.2 | 6.4 | 0.00 | 0.00 | 0.00 | 73 | 1009.2 |
| 20260507110919 | -3 | 360 | 3.2 | 6.4 | 0.00 | 0.00 | 0.00 | 73 | 1009.2 |
| 20260507105958 | -2 | 360 | 4.8 | 6.4 | 0.00 | 0.00 | 0.00 | 72 | 1009.1 |
| 20260507105358 | -2 | 360 | 4.8 | 6.4 | 0.00 | 0.00 | 0.00 | 72 | 1009.0 |
| 20260507104459 | -2 | 360 | 1.6 | 4.8 | 0.00 | 0.00 | 0.00 | 71 | 1008.8 |
| 20260507103600 | -2 | 360 | 0.0 | 1.6 | 0.00 | 0.00 | 0.00 | 71 | 1008.9 |
| 20260507102659 | -2 | 0 | 0.0 | 0.0 | 0.00 | 0.00 | 0.00 | 71 | 1008.8 |
| 20260507101819 | -2 | 360 | 0.0 | 3.2 | 0.00 | 0.00 | 0.00 | 71 | 1008.8 |
| 20260507100900 | -2 | 360 | 0.0 | 1.6 | 0.00 | 0.00 | 0.00 | 70 | 1008.8 |
| 20260507095959 | -2 | 359 | 1.6 | 4.8 | 0.00 | 0.00 | 0.00 | 71 | 1008.8 |
| 20260507095359 | -2 | 358 | 3.2 | 6.4 | 0.00 | 0.00 | 0.00 | 72 | 1008.9 |
| 20260507094459 | -2 | 356 | 6.4 | 8.0 | 0.00 | 0.00 | 0.00 | 71 | 1008.9 |
| 20260507093600 | -2 | 358 | 4.8 | 6.4 | 0.00 | 0.00 | 0.00 | 71 | 1008.8 |
| 20260507092720 | -2 | 358 | 4.8 | 8.0 | 0.00 | 0.00 | 0.00 | 70 | 1008.7 |
| 20260507091759 | -2 | 359 | 3.2 | 6.4 | 0.00 | 0.00 | 0.00 | 71 | 1008.7 |
| 20260507090859 | -2 | 358 | 3.2 | 4.8 | 0.00 | 0.00 | 0.00 | 71 | 1008.7 |
| 20260507085959 | -2 | 359 | 3.2 | 6.4 | 0.00 | 0.00 | 0.00 | 71 | 1008.7 |
| 20260507085420 | -2 | 357 | 4.8 | 8.0 | 0.00 | 0.00 | 0.00 | 72 | 1008.6 |
| 20260507084520 | -2 | 359 | 4.8 | 8.0 | 0.00 | 0.00 | 0.00 | 70 | 1008.6 |
| 20260507083559 | -2 | 360 | 3.2 | 4.8 | 0.00 | 0.00 | 0.00 | 70 | 1008.5 |
| 20260507082700 | -2 | 360 | 1.6 | 6.4 | 0.00 | 0.00 | 0.00 | 70 | 1008.5 |
| 20260507081820 | -2 | 360 | 3.2 | 6.4 | 0.00 | 0.00 | 0.00 | 70 | 1008.5 |
| 20260507080900 | -2 | 360 | 1.6 | 3.2 | 0.00 | 0.00 | 0.00 | 70 | 1008.5 |
| 20260507075959 | -2 | 360 | 3.2 | 6.4 | 0.00 | 0.00 | 0.00 | 70 | 1008.7 |
| 20260507075359 | -2 | 360 | 3.2 | 6.4 | 0.00 | 0.00 | 0.00 | 69 | 1008.7 |
| 20260507074500 | -2 | 360 | 3.2 | 6.4 | 0.00 | 0.00 | 0.00 | 69 | 1008.9 |
| 20260507073559 | -1 | 360 | 4.8 | 9.7 | 0.00 | 0.00 | 0.00 | 68 | 1009.0 |
| 20260507072659 | -1 | 360 | 4.8 | 9.7 | 0.00 | 0.00 | 0.00 | 66 | 1008.9 |
| 20260507071759 | -1 | 360 | 1.6 | 4.8 | 0.00 | 0.00 | 0.00 | 66 | 1008.9 |
| 20260507070859 | -1 | 360 | 0.0 | 1.6 | 0.00 | 0.00 | 0.00 | 64 | 1008.9 |
| 20260507070020 | -1 | 360 | 1.6 | 4.8 | 0.00 | 0.00 | 0.00 | 64 | 1009.0 |
| 20260507065359 | 0 | 360 | 3.2 | 6.4 | 0.00 | 0.00 | 0.00 | 64 | 1008.8 |
| 20260507064500 | 0 | 360 | 1.6 | 6.4 | 0.00 | 0.00 | 0.00 | 62 | 1009.1 |
| 20260507063559 | 0 | 360 | 1.6 | 6.4 | 0.00 | 0.00 | 0.00 | 59 | 1009.1 |
| 20260507062700 | 1 | 360 | 3.2 | 4.8 | 0.00 | 0.00 | 0.00 | 58 | 1009.1 |
| 20260507061800 | 2 | 360 | 3.2 | 4.8 | 0.00 | 0.00 | 0.00 | 55 | 1009.4 |
| 20260507060900 | 3 | 360 | 3.2 | 4.8 | 0.00 | 0.00 | 0.00 | 53 | 1009.4 |
| 20260507060000 | 3 | 360 | 3.2 | 6.4 | 0.00 | 0.00 | 0.00 | 52 | 1009.3 |
| 20260507055359 | 3 | 360 | 1.6 | 6.4 | 0.00 | 0.00 | 0.00 | 51 | 1009.4 |
| 20260507054521 | 3 | 2 | 8.0 | 16.1 | 0.00 | 0.00 | 0.00 | 52 | 1009.5 |
| 20260507053600 | 2 | 359 | 4.8 | 9.7 | 0.00 | 0.00 | 0.00 | 53 | 1009.3 |
| 20260507052701 | 2 | 140 | 4.8 | 8.0 | 0.00 | 0.00 | 0.00 | 54 | 1009.3 |
| 20260507051801 | 2 | 154 | 1.6 | 8.0 | 0.00 | 0.00 | 0.00 | 54 | 1009.4 |
| 20260507050901 | 2 | 153 | 1.6 | 4.8 | 0.00 | 0.00 | 0.00 | 53 | 1009.4 |
| 20260507050000 | 3 | 153 | 0.0 | 3.2 | 0.00 | 0.00 | 0.00 | 53 | 1009.5 |
| 20260507045400 | 3 | 153 | 0.0 | 3.2 | 0.00 | 0.00 | 0.00 | 52 | 1009.6 |
| 20260507044500 | 3 | 153 | 3.2 | 4.8 | 0.00 | 0.00 | 0.00 | 53 | 1009.8 |
| 20260507043600 | 4 | 153 | 3.2 | 6.4 | 0.00 | 0.00 | 0.00 | 50 | 1009.8 |
| 20260507042700 | 5 | 153 | 4.8 | 8.0 | 0.00 | 0.00 | 0.00 | 49 | 1009.9 |
| 20260507041800 | 4 | 153 | 4.8 | 6.4 | 0.00 | 0.00 | 0.00 | 48 | 1010.1 |
| 20260507040900 | 4 | 153 | 3.2 | 8.0 | 0.00 | 0.00 | 0.00 | 49 | 1010.2 |
| 20260507040000 | 4 | 153 | 1.6 | 3.2 | 0.00 | 0.00 | 0.00 | 50 | 1010.3 |
| 20260507035400 | 5 | 153 | 1.6 | 4.8 | 0.00 | 0.00 | 0.00 | 51 | 1010.4 |
| 20260507034500 | 5 | 153 | 3.2 | 4.8 | 0.00 | 0.00 | 0.00 | 52 | 1010.4 |
| 20260507033600 | 5 | 153 | 3.2 | 8.0 | 0.00 | 0.00 | 0.00 | 51 | 1010.5 |
| 20260507032721 | 5 | 153 | 4.8 | 6.4 | 0.00 | 0.00 | 0.00 | 50 | 1010.5 |
| 20260507031800 | 5 | 153 | 4.8 | 9.7 | 0.00 | 0.00 | 0.00 | 49 | 1010.6 |
| 20260507030900 | 6 | 150 | 4.8 | 8.0 | 0.00 | 0.00 | 0.00 | 47 | 1010.7 |
| 20260507030000 | 6 | 150 | 4.8 | 9.7 | 0.00 | 0.00 | 0.00 | 46 | 1010.8 |
| 20260507025400 | 6 | 149 | 6.4 | 9.7 | 0.00 | 0.00 | 0.00 | 46 | 1010.9 |
| 20260507024500 | 7 | 148 | 3.2 | 8.0 | 0.00 | 0.00 | 0.00 | 45 | 1010.8 |
| 20260507023600 | 7 | 147 | 6.4 | 11.3 | 0.00 | 0.00 | 0.00 | 44 | 1010.9 |
| 20260507022700 | 8 | 133 | 6.4 | 9.7 | 0.00 | 0.00 | 0.00 | 43 | 1010.9 |
| 20260507021801 | 8 | 126 | 4.8 | 6.4 | 0.00 | 0.00 | 0.00 | 42 | 1011.0 |
| 20260507020921 | 10 | 126 | 3.2 | 4.8 | 0.00 | 0.00 | 0.00 | 38 | 1011.0 |
| 20260507020000 | 10 | 126 | 3.2 | 4.8 | 0.00 | 0.00 | 0.00 | 36 | 1011.0 |
| 20260507015400 | 10 | 126 | 3.2 | 4.8 | 0.00 | 0.00 | 0.00 | 36 | 1011.1 |
| 20260507014500 | 11 | 126 | 3.2 | 4.8 | 0.00 | 0.00 | 0.00 | 36 | 1011.0 |
| 20260507013601 | 11 | 126 | 4.8 | 6.4 | 0.00 | 0.00 | 0.00 | 35 | 1011.1 |
| 20260507012701 | 11 | 126 | 3.2 | 6.4 | 0.00 | 0.00 | 0.00 | 34 | 1011.1 |
| 20260507011822 | 11 | 126 | 4.8 | 9.7 | 0.00 | 0.00 | 0.00 | 33 | 1011.1 |
| 20260507010901 | 11 | 126 | 4.8 | 8.0 | 0.00 | 0.00 | 0.00 | 31 | 1011.0 |
| 20260507010001 | 11 | 126 | 4.8 | 6.4 | 0.00 | 0.00 | 0.00 | 29 | 1011.1 |
| 20260507005422 | 11 | 125 | 4.8 | 9.7 | 0.00 | 0.00 | 0.00 | 30 | 1011.1 |
| 20260507004501 | 12 | 115 | 6.4 | 12.9 | 0.00 | 0.00 | 0.00 | 27 | 1011.0 |
| 20260507003601 | 12 | 104 | 9.7 | 14.5 | 0.00 | 0.00 | 0.00 | 30 | 1011.0 |
| 20260507002702 | 12 | 107 | 9.7 | 14.5 | 0.00 | 0.00 | 0.00 | 28 | 1011.1 |
| 20260507001801 | 12 | 104 | 8.0 | 12.9 | 0.00 | 0.00 | 0.00 | 30 | 1011.2 |
| 20260507000901 | 12 | 108 | 6.4 | 14.5 | 0.00 | 0.00 | 0.00 | 28 | 1011.4 |
| 20260507000003 | 12 | 93 | 6.4 | 14.5 | 0.00 | 0.00 | 0.00 | 27 | 1011.5 |
| 20260506235401 | 12 | 91 | 6.4 | 12.9 | 0.00 | 0.00 | 0.00 | 28 | 1011.7 |
| 20260506234501 | 12 | 88 | 6.4 | 14.5 | 0.00 | 0.00 | 0.00 | 27 | 1011.8 |
| 20260506233601 | 12 | 81 | 6.4 | 14.5 | 0.00 | 0.00 | 0.00 | 28 | 1012.0 |
| 20260506232701 | 12 | 124 | 6.4 | 14.5 | 0.00 | 0.00 | 0.00 | 26 | 1012.1 |
| 20260506231801 | 12 | 106 | 6.4 | 14.5 | 0.00 | 0.00 | 0.00 | 27 | 1012.1 |
| 20260506230901 | 12 | 130 | 4.8 | 12.9 | 0.00 | 0.00 | 0.00 | 27 | 1012.1 |
| 20260506230002 | 12 | 145 | 4.8 | 14.5 | 0.00 | 0.00 | 0.00 | 26 | 1012.3 |
| 20260506225401 | 12 | 142 | 8.0 | 14.5 | 0.00 | 0.00 | 0.00 | 28 | 1012.3 |
| 20260506224501 | 12 | 102 | 4.8 | 11.3 | 0.00 | 0.00 | 0.00 | 26 | 1012.4 |
| 20260506223601 | 12 | 95 | 9.7 | 16.1 | 0.00 | 0.00 | 0.00 | 26 | 1012.4 |
| 20260506222702 | 13 | 99 | 9.7 | 24.1 | 0.00 | 0.00 | 0.00 | 28 | 1012.5 |
| 20260506221802 | 13 | 181 | 4.8 | 12.9 | 0.00 | 0.00 | 0.00 | 29 | 1012.6 |
| 20260506220901 | 13 | 47 | 3.2 | 8.0 | 0.00 | 0.00 | 0.00 | 27 | 1012.8 |
| 20260506220001 | 13 | 171 | 6.4 | 16.1 | 0.00 | 0.00 | 0.00 | 27 | 1013.0 |
| 20260506215401 | 13 | 109 | 6.4 | 16.1 | 0.00 | 0.00 | 0.00 | 29 | 1013.1 |
| 20260506214501 | 12 | 117 | 4.8 | 11.3 | 0.00 | 0.00 | 0.00 | 26 | 1013.3 |
| 20260506213624 | 12 | 123 | 6.4 | 14.5 | 0.00 | 0.00 | 0.00 | 27 | 1013.5 |
| 20260506212701 | 13 | 100 | 12.9 | 19.3 | 0.00 | 0.00 | 0.00 | 28 | 1013.7 |
| 20260506211803 | 12 | 130 | 6.4 | 16.1 | 0.00 | 0.00 | 0.00 | 27 | 1013.8 |
| 20260506210902 | 12 | 163 | 8.0 | 17.7 | 0.00 | 0.00 | 0.00 | 27 | 1013.9 |
| 20260506210023 | 12 | 132 | 6.4 | 14.5 | 0.00 | 0.00 | 0.00 | 27 | 1014.1 |
| 20260506205423 | 12 | 326 | 6.4 | 16.1 | 0.00 | 0.00 | 0.00 | 28 | 1014.3 |
| 20260506204502 | 12 | 287 | 8.0 | 16.1 | 0.00 | 0.00 | 0.00 | 26 | 1014.3 |
| 20260506203622 | 12 | 55 | 11.3 | 22.5 | 0.00 | 0.00 | 0.00 | 27 | 1014.4 |
| 20260506202702 | 12 | 78 | 8.0 | 17.7 | 0.00 | 0.00 | 0.00 | 28 | 1014.5 |
| 20260506201803 | 12 | 324 | 8.0 | 17.7 | 0.00 | 0.00 | 0.00 | 29 | 1014.6 |
| 20260506200922 | 11 | 337 | 9.7 | 22.5 | 0.00 | 0.00 | 0.00 | 27 | 1014.7 |
| 20260506200002 | 11 | 44 | 4.8 | 14.5 | 0.00 | 0.00 | 0.00 | 29 | 1014.8 |
| 20260506195403 | 11 | 35 | 6.4 | 19.3 | 0.00 | 0.00 | 0.00 | 28 | 1014.9 |
| 20260506194524 | 12 | 52 | 9.7 | 29.0 | 0.00 | 0.00 | 0.00 | 31 | 1015.0 |
| 20260506193603 | 11 | 114 | 8.0 | 22.5 | 0.00 | 0.00 | 0.00 | 30 | 1015.0 |
| 20260506192702 | 11 | 10 | 9.7 | 24.1 | 0.00 | 0.00 | 0.00 | 28 | 1015.2 |
| 20260506191802 | 11 | 297 | 6.4 | 17.7 | 0.00 | 0.00 | 0.00 | 31 | 1015.3 |
| 20260506190903 | 11 | 355 | 9.7 | 22.5 | 0.00 | 0.00 | 0.00 | 29 | 1015.6 |
| 20260506190003 | 10 | 345 | 8.0 | 17.7 | 0.00 | 0.00 | 0.00 | 31 | 1015.6 |
| 20260506185402 | 11 | 348 | 12.9 | 22.5 | 0.00 | 0.00 | 0.00 | 30 | 1015.6 |
| 20260506184523 | 10 | 343 | 9.7 | 22.5 | 0.00 | 0.00 | 0.00 | 30 | 1015.7 |
| 20260506183623 | 11 | 341 | 11.3 | 25.7 | 0.00 | 0.00 | 0.00 | 28 | 1016.1 |
| 20260506182702 | 11 | 13 | 9.7 | 22.5 | 0.00 | 0.00 | 0.00 | 31 | 1016.0 |
| 20260506181802 | 10 | 29 | 8.0 | 19.3 | 0.00 | 0.00 | 0.00 | 33 | 1016.2 |
| 20260506180902 | 10 | 310 | 12.9 | 25.7 | 0.00 | 0.00 | 0.00 | 29 | 1016.4 |
| 20260506180023 | 10 | 346 | 11.3 | 22.5 | 0.00 | 0.00 | 0.00 | 33 | 1016.5 |
| 20260506175402 | 10 | 349 | 14.5 | 29.0 | 0.00 | 0.00 | 0.00 | 31 | 1016.7 |
| 20260506174502 | 10 | 355 | 11.3 | 22.5 | 0.00 | 0.00 | 0.00 | 32 | 1016.7 |
| 20260506173602 | 9 | 308 | 12.9 | 30.6 | 0.00 | 0.00 | 0.00 | 31 | 1016.9 |
| 20260506172724 | 9 | 352 | 12.9 | 29.0 | 0.00 | 0.00 | 0.00 | 32 | 1017.0 |
| 20260506171802 | 9 | 337 | 12.9 | 27.4 | 0.00 | 0.00 | 0.00 | 31 | 1017.1 |
| 20260506170903 | 8 | 324 | 17.7 | 32.2 | 0.00 | 0.00 | 0.00 | 32 | 1017.2 |
| 20260506170023 | 9 | 320 | 19.3 | 32.2 | 0.00 | 0.00 | 0.00 | 31 | 1017.2 |
| 20260506165402 | 8 | 331 | 19.3 | 40.2 | 0.00 | 0.00 | 0.00 | 32 | 1017.4 |
| 20260506164504 | 8 | 323 | 20.9 | 33.8 | 0.00 | 0.00 | 0.00 | 32 | 1017.4 |
| 20260506163603 | 8 | 332 | 19.3 | 33.8 | 0.00 | 0.00 | 0.00 | 32 | 1017.3 |
| 20260506162724 | 8 | 337 | 14.5 | 25.7 | 0.00 | 0.00 | 0.00 | 32 | 1017.6 |
| 20260506161802 | 8 | 310 | 19.3 | 32.2 | 0.00 | 0.00 | 0.00 | 32 | 1017.5 |
| 20260506160902 | 7 | 315 | 16.1 | 29.0 | 0.00 | 0.00 | 0.00 | 33 | 1017.6 |
| 20260506160002 | 7 | 302 | 16.1 | 29.0 | 0.00 | 0.00 | 0.00 | 34 | 1017.6 |
| 20260506155404 | 7 | 310 | 16.1 | 29.0 | 0.00 | 0.00 | 0.00 | 33 | 1017.7 |
| 20260506154524 | 7 | 297 | 17.7 | 32.2 | 0.00 | 0.00 | 0.00 | 34 | 1017.8 |
| 20260506153624 | 7 | 295 | 17.7 | 25.7 | 0.00 | 0.00 | 0.00 | 35 | 1017.9 |
| 20260506152703 | 7 | 288 | 17.7 | 25.7 | 0.00 | 0.00 | 0.00 | 36 | 1017.9 |
| 20260506151803 | 7 | 296 | 16.1 | 27.4 | 0.00 | 0.00 | 0.00 | 34 | 1018.0 |
| 20260506150903 | 6 | 299 | 17.7 | 29.0 | 0.00 | 0.00 | 0.00 | 36 | 1018.0 |
| 20260506150003 | 6 | 308 | 16.1 | 22.5 | 0.00 | 0.00 | 0.00 | 34 | 1018.0 |